Location: McCall
(45.0000°N, 116.0000°W)
Time: 17:44:20
(UTC-07:00)

Saudisat 1A - Visible Passes

Search period start: 22 November 2014 00:00
Search period end: 02 December 2014 00:00
Orbit: 595 x 609 km, 64.6° (Epoch: 22 November)

Date Brightness Start Highest point End Pass type
(mag) Time Alt. Az. Time Alt. Az. Time Alt. Az.
22 Nov 10.5 06:34:22 10° N 06:36:45 14° NNE 06:39:08 10° ENE visible
23 Nov 10.1 06:45:44 10° N 06:49:03 20° NE 06:52:22 10° E visible
24 Nov 9.6 06:57:18 10° NNW 07:01:14 30° NE 07:05:10 10° ESE visible
25 Nov 10.6 05:31:04 10° N 05:32:42 12° NNE 05:34:20 10° NE visible
25 Nov 8.8 07:08:59 10° NNW 07:13:19 49° NE 07:17:37 10° SE visible
26 Nov 10.4 05:42:46 12° N 05:45:03 17° NE 05:47:54 10° ENE visible
26 Nov 8.1 07:20:48 10° NW 07:25:16 86° NE 07:29:42 10° SE visible
27 Nov 9.9 05:54:37 15° N 05:57:16 24° NE 06:00:54 10° E visible
28 Nov 9.3 06:06:30 18° NNW 06:09:23 37° NE 06:13:31 10° ESE visible
29 Nov 10.8 04:41:40 13° NE 04:41:40 13° NE 04:43:14 10° ENE visible
29 Nov 8.4 06:18:27 21° NNW 06:21:23 63° NE 06:25:46 10° SE visible
30 Nov 10.3 04:53:40 19° NE 04:53:40 19° NE 04:56:29 10° E visible
30 Nov 8.0 06:30:28 22° NW 06:33:16 74° WSW 06:37:40 10° SSE visible
01 Dec 9.7 05:05:45 29° NE 05:05:45 29° NE 05:09:16 10° ESE visible
01 Dec 8.6 06:42:34 21° WNW 06:45:02 40° WSW 06:49:10 10° S visible
